Location: Peebles
(55.6412°N, 3.1714°W)
Time: 21:20:46
(UTC+01:00)

deb Kosmos-2123 - Pass Details

Date: 04 July 2022
Orbit: 942 x 985 km, 82.9° (Epoch: 17 August)

Event Time Altitude Azimuth Distance (km) Brightness Sun altitude
Exits shadow 01:05:34 13° 157° (SSE) 2,548 ? -11.4°
Maximum altitude 01:10:54 44° 89° (E) 1,333 ? -11.5°
Drops below altitude 10° 01:16:48 10° 20° (NNE) 2,740 ? -11.5°
Sets 01:19:24 0° 14° (NNE) 3,686 ? -11.5°
